Home   Weather   Fairborn   Past weeks
Flag for USA

Past Weather in Fairborn, Ohio, USA — Yesterday and Last 2 Weeks

Now
67 °F

Broken clouds.


Feels Like: 67 °F
Forecast: 79 / 65 °F
Wind: No wind

Location: Dayton / Wright-Patterson Air Force Base

Current Time: Aug 3, 2020 at 8:55:51 am

Latest Report: Aug 3, 2020 at 7:56 am


Visibility: 10 mi

Pressure: 30.01 "Hg

Humidity: 90%

Dew Point: 64 °F

Location of FairbornLocation

Past Weather in Fairborn — Graph

°F

Fairborn Temperature Yesterday

Maximum temperature yesterday: 79 °F (at 6:56 pm)
Minimum temperature yesterday: 65 °F (at 9:56 am)
Average temperature yesterday: 70 °F

High & Low Weather Summary for the Past Weeks

 TemperatureHumidityPressure
High95 °F (Jul 19, 3:56 pm)100% (Jul 23, 11:25 am)30.17 "Hg (Jul 23, 11:25 am)
Low64 °F (Jul 29, 3:56 am)39% (Jul 28, 4:56 pm)29.73 "Hg (Aug 2, 2:56 am)
Average76 °F77%29.97 "Hg
* Reported Jul 19 6:56 am — Aug 3 6:56 am, Fairborn. Weather by CustomWeather, © 2020

Note: Actual official high and low records may vary slightly from our data, if they occured in-between our weather recording intervals... More about our weather records

Fairborn Weather History for the Previous 24 Hours

Scroll right to see more
 ConditionsComfort  
Time TempWeatherWind HumidityBarometerVisibility
6:56 am
Mon, Aug 3
66 °FBroken clouds.5 mph91%29.99 "Hg10 mi
5:56 am66 °FOvercast.No wind91%29.97 "Hg10 mi
4:56 am66 °FMostly cloudy.3 mph90%29.96 "Hg10 mi
3:56 am65 °FPassing clouds.5 mph94%29.96 "Hg10 mi
2:56 am66 °FPassing clouds.3 mph90%29.98 "Hg10 mi
1:56 am66 °FPassing clouds.No wind89%29.99 "Hg10 mi
12:56 am67 °FClear.No wind87%29.99 "Hg10 mi
11:56 pm
Sun, Aug 2
67 °FClear.3 mph86%29.99 "Hg10 mi
10:56 pm70 °FPassing clouds.3 mph79%29.98 "Hg10 mi
9:56 pm70 °FPassing clouds.5 mph80%29.98 "Hg10 mi
8:56 pm72 °FPassing clouds.3 mph76%29.96 "Hg10 mi
7:56 pm76 °FPassing clouds.7 mph65%29.93 "Hg10 mi
6:56 pm79 °FPassing clouds.8 mph61%29.92 "Hg10 mi
5:56 pm78 °FBroken clouds.3 mph62%29.92 "Hg10 mi
5:06 pm75 °FPartly sunny.5 mph69%29.92 "Hg10 mi
3:56 pm76 °FCloudy.12 mph66%29.92 "Hg10 mi
3:16 pm73 °FMostly cloudy.13 mph69%29.93 "Hg10 mi
2:56 pm73 °FMostly cloudy.14 mph70%29.92 "Hg10 mi
1:56 pm71 °FCloudy.13 mph77%29.92 "Hg10 mi
1:13 pm68 °FMostly cloudy.13 mph88%29.93 "Hg10 mi
12:56 pm67 °FFog.13 mph88%29.93 "Hg5 mi
12:18 pm66 °FDrizzle. Fog.15 mph94%29.92 "Hg3 mi
11:56 am67 °FDrizzle. Fog.14 mph91%29.90 "Hg2 mi
11:14 am66 °FFog.13 mph94%29.90 "Hg5 mi
10:56 am66 °FDrizzle. Fog.12 mph93%29.88 "Hg3 mi
9:56 am65 °FDrizzle. Fog.15 mph94%29.85 "Hg2 mi
9:24 am66 °FDrizzle. Fog.16 mph88%29.85 "Hg1 mi
9:06 am66 °FFog.16 mph94%29.83 "Hg4 mi
8:56 am66 °FFog.16 mph93%29.83 "Hg5 mi
8:44 am66 °FMore clouds than sun.15 mph94%29.83 "Hg10 mi
8:34 am66 °FOvercast.18 mph88%29.81 "Hg10 mi
8:14 am66 °FMostly cloudy.20 mph94%29.80 "Hg10 mi
Weather by CustomWeather, © 2020

See weather overview